Wind_Speed
25 28 30 33 35 37 38 40 41 42 42 41 39 37 36 35 35 34 33 31 30 29 30 30 31 32 32 31 31 31 30 28 27 26 25 24 23 22 22 21 20 18 17
28 30 32 33 34 37 38 40 42 43 44 42 40 39 37 37 36 33 31 31 29 27 27 26 28 31 30 30 32 31 30 29 27 27 27 26 25 24 23 22 21 20 18
29 30 32 34 36 37 38 40 41 42 42 40 39 39 39 39 37 35 33 32 30 29 27 27 28 31 32 31 31 31 29 29 28 28 28 27 27 26 25 24 23 22 21
27 29 31 33 34 35 36 37 38 39 38 38 39 40 40 40 38 37 36 34 33 32 31 30 30 31 32 32 32 31 30 30 30 30 29 29 28 28 27 27 26 25 23
27 28 30 32 32 33 34 35 37 37 38 39 40 41 42 41 40 39 38 37 37 36 36 35 34 33 34 34 34 34 33 33 33 32 31 31 31 31 30 30 29 28 26
28 30 31 32 33 35 37 38 39 40 42 43 43 44 44 44 44 44 43 42 41 40 39 38 37 37 36 35 36 36 37 37 36 35 34 34 34 34 33 33 32 31 29
30 32 33 34 36 38 40 41 42 44 45 46 47 47 47 48 48 47 47 46 46 45 45 44 43 42 41 40 40 40 41 41 40 38 37 37 37 37 36 35 35 34 33
31 33 35 37 39 40 42 44 45 46 47 48 48 49 49 49 49 49 49 49 49 49 49 49 49 48 48 47 46 45 46 46 45 43 42 41 41 40 39 39 38 38 36
34 36 38 39 41 43 44 45 46 47 47 48 49 49 49 49 50 50 50 51 51 52 53 53 53 53 53 52 52 51 51 51 50 48 47 47 45 44 43 42 42 41 40
37 38 40 42 43 44 45 46 46 47 47 48 48 50 51 51 51 52 52 52 53 53 54 55 56 56 57 56 56 57 56 56 55 54 52 51 50 48 47 46 45 44 43
39 40 42 44 44 44 45 45 45 46 47 49 50 51 52 52 53 53 53 53 53 53 54 55 56 57 58 59 59 60 61 60 60 59 57 56 54 53 52 50 49 47 46
40 42 43 42 43 43 44 45 46 48 49 51 52 52 53 54 54 54 54 54 54 54 54 54 55 56 58 59 60 62 64 65 65 65 63 61 59 57 56 54 52 51 50
42 42 42 43 43 44 45 47 48 50 52 53 54 55 56 56 56 56 55 55 54 54 54 54 54 55 57 57 59 61 63 65 67 68 68 66 65 62 60 59 57 55 54
43 43 43 43 44 45 47 48 50 52 53 54 55 56 56 57 57 56 56 55 54 54 54 54 54 54 55 57 58 59 60 62 65 68 69 69 68 66 64 63 61 59 57
43 43 43 43 44 46 47 49 50 52 53 54 55 55 56 56 55 55 54 53 52 51 51 50 50 51 52 53 55 57 58 59 61 64 67 69 70 68 68 67 65 62 60
43 43 43 44 45 46 48 49 51 52 53 54 55 54 54 53 52 51 50 49 48 47 46 46 46 47 48 49 50 52 54 55 57 59 62 64 67 69 69 67 67 65 63
42 42 43 44 45 47 49 49 51 52 53 54 53 52 52 50 48 46 44 44 44 43 42 42 42 43 44 44 46 48 50 52 53 54 56 59 62 65 67 68 67 66 65
43 43 44 45 47 48 48 50 51 52 53 52 52 51 48 46 43 41 39 39 38 39 39 39 39 39 41 42 42 44 46 47 48 49 51 53 55 59 62 64 65 66 64
44 45 45 47 48 48 49 50 51 51 51 50 49 47 44 41 38 36 35 34 33 34 35 35 36 37 37 38 39 39 40 41 42 43 45 46 49 52 55 57 59 61 62
45 45 46 47 48 48 49 50 50 50 49 48 45 42 39 36 33 31 29 29 28 29 30 31 31 32 34 35 36 36 35 35 37 38 39 41 43 46 49 51 53 55 56
45 45 46 47 47 48 48 49 49 48 47 45 42 39 36 32 29 26 24 23 22 23 23 25 27 28 30 31 32 32 33 32 33 33 34 36 38 41 43 46 48 51 53
45 45 45 46 47 47 47 48 48 47 46 44 40 37 33 29 26 23 20 19 17 17 18 20 22 24 26 28 29 30 31 31 31 31 32 33 35 37 39 41 44 47 50
44 44 45 45 46 47 47 48 48 46 44 41 38 35 31 27 23 20 17 15 12 11 12 14 17 20 22 23 24 26 27 27 28 29 30 31 32 34 36 38 41 45 48
44 44 44 44 45 46 46 47 47 45 43 39 36 34 29 25 21 18 16 12 10 8 7 9 11 14 17 19 20 22 24 24 25 26 27 28 30 32 34 36 39 42 46
44 43 43 44 45 45 45 46 46 44 42 39 35 32 28 24 20 18 15 11 9 6 5 6 9 11 14 16 18 20 21 23 24 25 26 27 29 31 32 34 36 40 43
43 43 42 43 44 44 44 45 44 44 42 39 35 32 28 24 21 18 15 12 9 6 4 5 7 10 12 14 16 18 19 20 21 22 24 25 27 29 30 31 34 37 41
Wind_Direction
274 275 276 276 278 279 279 280 281 284 285 286 286 287 287 287 288 287 286 286 286 279 273 265 263 263 259 256 256 256 253 250 248 244 242 240 239 239 239 238 238 238 240
276 277 278 280 281 282 282 282 281 283 285 286 288 287 287 289 290 289 286 286 288 285 276 272 267 261 259 256 253 251 250 246 245 243 241 239 238 237 238 237 236 235 235
280 280 281 282 283 284 284 285 284 284 285 286 286 287 287 288 287 287 286 286 285 281 277 274 270 263 261 258 254 248 244 244 243 243 241 239 238 237 237 235 235 234 234
287 287 287 287 287 288 289 289 288 288 287 286 286 287 287 286 286 285 283 282 282 279 275 273 269 264 260 257 251 246 245 244 243 242 240 239 239 238 237 236 234 233 234
294 293 291 291 290 291 293 292 292 291 290 289 289 288 287 287 285 283 280 279 278 277 274 271 267 262 258 255 250 245 243 242 241 241 239 239 238 237 236 236 235 233 234
297 297 296 293 293 294 295 294 293 292 291 290 289 288 286 285 284 282 279 277 274 273 271 268 265 262 259 256 250 246 244 242 240 240 239 239 238 237 236 236 235 234 234
300 300 299 298 297 297 296 295 294 292 291 290 288 287 285 283 282 280 278 276 273 270 267 264 262 260 258 256 252 249 246 243 240 239 238 239 238 237 236 236 236 235 235
303 302 301 300 299 298 297 296 294 293 291 289 288 286 284 283 281 279 276 274 272 269 266 262 260 258 255 254 251 248 246 244 242 240 239 239 239 238 237 236 236 236 236
305 304 304 303 301 300 298 297 296 294 292 291 289 287 285 283 281 279 276 274 271 268 265 263 261 258 256 253 250 247 244 243 242 241 240 239 239 238 238 237 236 236 237
309 308 306 305 303 301 299 298 297 296 294 293 291 289 287 285 283 280 278 275 272 269 266 263 260 258 255 253 250 247 245 243 242 241 240 240 239 238 238 237 237 237 237
311 309 308 306 305 303 302 301 300 298 297 296 294 293 291 288 285 282 279 276 273 271 267 264 260 258 255 252 249 246 245 243 242 241 240 239 238 238 237 237 237 237 237
313 312 310 309 308 307 306 305 303 302 300 298 296 294 292 289 287 283 280 277 274 271 268 265 261 258 255 252 249 247 245 244 242 241 240 239 238 237 237 237 237 237 236
316 315 314 313 312 311 309 308 307 305 303 301 299 296 294 291 288 285 281 277 273 271 268 265 262 259 256 253 250 248 246 244 242 241 240 239 238 237 237 237 237 236 236
319 318 317 315 314 314 313 311 310 308 306 303 301 299 296 293 290 286 282 278 274 271 268 265 262 259 256 252 250 248 246 244 243 241 240 239 238 237 236 236 236 236 235
322 321 319 318 317 316 315 314 313 311 309 307 304 302 299 295 291 288 284 280 275 271 267 264 260 257 254 251 249 246 245 243 242 241 240 239 238 237 236 236 236 236 235
325 324 322 321 320 319 318 317 315 314 312 310 307 305 302 298 294 289 284 280 276 271 266 262 258 255 253 250 247 245 243 242 241 240 239 239 239 238 237 236 236 236 235
328 327 326 324 323 322 321 320 319 318 316 314 311 308 305 301 297 292 287 281 274 269 265 261 256 253 250 248 245 243 241 241 239 239 238 238 238 238 238 237 236 236 235
331 329 328 328 327 326 325 325 324 322 321 318 315 312 308 304 299 294 290 283 274 268 264 259 253 250 247 245 243 241 240 240 239 238 237 237 237 237 237 237 236 236 235
333 333 332 331 330 329 329 328 328 327 326 324 321 317 313 308 303 296 291 284 276 269 262 257 250 246 244 244 240 239 239 238 237 237 237 238 237 236 236 235 235 235 234
335 336 335 334 334 333 333 332 332 331 330 329 326 323 321 316 310 303 295 286 278 269 261 255 248 243 241 241 238 236 236 234 234 234 235 236 236 235 234 234 232 230 229
338 338 338 338 338 338 337 337 336 335 335 334 332 329 326 323 317 312 304 295 283 271 261 250 244 240 238 237 235 234 232 232 231 232 234 234 234 234 233 232 230 228 227
340 340 341 341 342 342 341 341 340 339 339 338 337 336 333 330 325 320 313 306 293 274 257 248 242 237 235 233 234 233 231 231 231 233 234 234 234 232 231 229 227 226 224
342 343 344 344 344 345 345 345 345 343 343 342 342 342 341 340 336 330 325 317 305 285 261 249 240 236 232 229 229 228 227 227 229 231 233 233 232 230 228 225 223 222 220
343 345 346 346 347 347 348 349 349 349 349 349 348 348 348 347 346 342 338 332 319 299 271 247 235 227 223 223 224 224 223 225 227 229 231 232 230 228 226 224 222 219 215
345 346 347 348 349 350 351 352 353 354 354 354 354 354 354 354 353 351 346 341 334 316 271 240 228 219 217 221 223 222 224 226 228 231 232 231 229 226 223 221 219 217 213
346 347 347 349 350 352 354 355 356 357 358 359 358 358 359 359 358 356 353 347 339 329 293 243 230 223 221 222 222 222 225 228 230 232 231 231 229 224 220 218 216 212 209
Height
5861 5860 5858 5856 5854 5852 5849 5846 5843 5840 5837 5834 5830 5828 5825 5823 5820 5818 5817 5815 5813 5809 5808 5810 5812 5812 5813 5815 5816 5818 5819 5822 5824 5825 5827 5829 5830 5831 5833 5835 5836 5838 5839
5855 5853 5851 5849 5846 5843 5841 5837 5834 5832 5828 5825 5822 5819 5816 5814 5812 5810 5809 5808 5805 5803 5802 5802 5803 5805 5806 5807 5808 5809 5812 5814 5817 5819 5821 5823 5825 5826 5828 5829 5831 5833 5834
5848 5846 5843 5841 5838 5835 5832 5828 5825 5822 5819 5815 5813 5811 5808 5806 5804 5803 5801 5800 5798 5796 5796 5795 5795 5796 5797 5799 5800 5801 5804 5807 5809 5811 5814 5816 5818 5820 5822 5823 5826 5828 5830
5841 5838 5835 5832 5829 5826 5822 5819 5815 5812 5810 5807 5805 5802 5799 5797 5795 5793 5792 5791 5790 5789 5788 5788 5787 5787 5788 5789 5791 5794 5796 5799 5801 5804 5806 5809 5811 5814 5816 5818 5820 5822 5824
5834 5831 5827 5824 5821 5818 5814 5811 5807 5804 5800 5797 5795 5792 5790 5787 5785 5783 5782 5781 5780 5780 5779 5779 5779 5779 5778 5779 5781 5785 5788 5790 5793 5796 5798 5800 5803 5806 5809 5811 5814 5816 5818
5827 5824 5820 5816 5813 5809 5805 5802 5798 5794 5791 5788 5784 5782 5779 5776 5774 5772 5771 5770 5769 5769 5769 5769 5769 5770 5769 5769 5772 5775 5778 5781 5784 5786 5789 5792 5795 5798 5801 5803 5806 5809 5812
5820 5817 5813 5809 5805 5800 5796 5792 5788 5784 5780 5777 5773 5770 5767 5764 5762 5760 5758 5757 5756 5756 5756 5756 5757 5758 5759 5760 5762 5764 5767 5770 5773 5776 5779 5782 5786 5788 5792 5795 5798 5801 5804
5814 5809 5805 5800 5796 5791 5786 5782 5778 5773 5769 5765 5761 5757 5754 5751 5748 5746 5744 5742 5742 5741 5741 5741 5743 5744 5745 5747 5749 5752 5755 5758 5761 5765 5768 5772 5775 5779 5782 5786 5789 5793 5796
5806 5802 5797 5791 5786 5781 5775 5770 5765 5760 5756 5751 5747 5743 5739 5736 5733 5731 5728 5727 5725 5725 5724 5725 5726 5727 5729 5732 5734 5737 5740 5744 5748 5752 5756 5760 5764 5767 5771 5775 5779 5784 5787
5799 5793 5787 5782 5776 5770 5764 5758 5753 5747 5742 5737 5732 5728 5724 5720 5717 5714 5712 5709 5708 5707 5707 5707 5708 5709 5711 5714 5717 5720 5724 5728 5732 5737 5741 5746 5751 5755 5760 5764 5768 5773 5777
5790 5784 5778 5771 5765 5759 5752 5746 5741 5735 5729 5723 5717 5712 5707 5703 5699 5696 5693 5691 5689 5688 5687 5688 5688 5690 5692 5695 5698 5702 5706 5711 5715 5720 5725 5731 5736 5741 5746 5751 5756 5761 5766
5781 5774 5768 5761 5754 5748 5741 5735 5728 5721 5715 5708 5702 5696 5691 5685 5681 5677 5673 5671 5669 5668 5667 5667 5668 5669 5671 5674 5678 5682 5686 5691 5697 5702 5708 5714 5720 5725 5731 5737 5743 5748 5754
5772 5765 5757 5750 5743 5736 5729 5722 5715 5708 5700 5693 5686 5679 5673 5667 5661 5657 5653 5651 5649 5647 5647 5647 5648 5649 5651 5654 5657 5661 5666 5671 5677 5683 5689 5696 5703 5709 5716 5722 5728 5735 5741
5762 5755 5747 5740 5732 5725 5717 5710 5702 5694 5685 5677 5669 5661 5654 5647 5641 5636 5632 5629 5628 5627 5626 5627 5628 5629 5631 5634 5637 5641 5646 5651 5657 5663 5669 5676 5684 5691 5699 5706 5713 5720 5726
5753 5745 5737 5729 5722 5714 5706 5697 5688 5679 5670 5661 5652 5643 5635 5627 5621 5615 5611 5608 5606 5606 5606 5607 5608 5609 5611 5615 5618 5623 5627 5632 5637 5644 5650 5657 5665 5673 5681 5689 5697 5704 5712
5744 5736 5727 5719 5711 5702 5694 5684 5675 5665 5655 5644 5635 5625 5616 5608 5601 5595 5591 5588 5586 5586 5586 5587 5589 5591 5594 5597 5601 5605 5610 5615 5620 5626 5632 5639 5647 5655 5663 5671 5680 5688 5697
5735 5727 5718 5709 5700 5691 5681 5671 5661 5650 5639 5628 5618 5608 5598 5590 5583 5577 5573 5570 5568 5568 5568 5569 5571 5574 5577 5581 5585 5589 5594 5599 5604 5610 5616 5622 5629 5637 5645 5654 5663 5672 5681
5727 5718 5709 5700 5690 5680 5669 5659 5648 5636 5625 5613 5602 5591 5581 5573 5567 5561 5557 5554 5552 5551 5552 5553 5556 5559 5562 5566 5570 5574 5579 5585 5590 5596 5601 5607 5613 5621 5628 5637 5646 5656 5665
5719 5710 5700 5690 5679 5669 5658 5647 5636 5624 5612 5600 5588 5576 5567 5559 5552 5547 5543 5540 5538 5537 5537 5539 5542 5545 5549 5552 5557 5562 5567 5572 5577 5583 5588 5594 5600 5607 5614 5622 5632 5641 5650
5712 5702 5692 5681 5670 5659 5648 5637 5625 5613 5600 5588 5576 5564 5555 5547 5540 5535 5531 5528 5526 5525 5525 5527 5530 5533 5537 5541 5546 5551 5557 5562 5567 5572 5577 5583 5588 5593 5600 5608 5616 5626 5635
5705 5695 5684 5673 5662 5651 5640 5628 5616 5603 5591 5578 5566 5556 5546 5538 5532 5526 5522 5518 5516 5515 5516 5517 5520 5523 5528 5532 5537 5542 5547 5552 5557 5562 5567 5572 5577 5582 5589 5596 5604 5613 5621
5699 5689 5678 5667 5656 5645 5633 5621 5608 5595 5583 5571 5559 5549 5540 5532 5525 5520 5516 5512 5510 5508 5509 5510 5513 5516 5520 5524 5528 5534 5539 5544 5549 5554 5558 5563 5568 5573 5579 5586 5593 5601 5609
5693 5683 5673 5662 5651 5639 5627 5615 5602 5589 5577 5565 5554 5544 5535 5527 5521 5516 5512 5508 5506 5505 5505 5506 5508 5510 5513 5517 5522 5527 5532 5537 5542 5546 5550 5554 5559 5564 5570 5576 5583 5590 5599
5688 5678 5668 5657 5646 5635 5623 5610 5598 5585 5573 5562 5551 5541 5533 5526 5520 5514 5510 5507 5504 5503 5503 5503 5504 5506 5509 5513 5517 5521 5526 5531 5535 5539 5543 5547 5551 5556 5561 5567 5574 5581 5590
5684 5674 5663 5653 5642 5631 5619 5607 5595 5583 5571 5560 5549 5540 5532 5525 5519 5514 5510 5507 5504 5503 5502 5502 5503 5505 5507 5510 5514 5517 5521 5525 5529 5533 5536 5540 5544 5548 5553 5559 5566 5573 5582
5680 5670 5660 5650 5639 5628 5617 5605 5593 5581 5570 5559 5549 5540 5532 5525 5519 5515 5510 5507 5505 5503 5502 5502 5502 5504 5506 5508 5511 5514 5518 5521 5524 5527 5530 5533 5537 5541 5546 5552 5558 5566 5574